{"data":{"norad_id":55686,"epoch":"2026-09-19T22:41:55.866336Z","epoch_age_seconds":66009,"freshness":"FRESH","line1":"1 55686U 23023A   26262.94578549 -.00000358  00000+0  00000+0 0  9994","line2":"2 55686   0.0590  70.4521 0002579  50.9554 343.0072  1.00272955 13189","mean_motion":1.00272955,"eccentricity":0.0002579,"inclination_deg":0.059,"raan_deg":70.4521,"arg_perigee_deg":50.9554,"mean_anomaly_deg":343.0072,"bstar":0,"rev_number":1318,"period_min":1436.0801474336,"perigee_km":35775.392771124,"apogee_km":35797.141170692,"semimajor_km":42164.403970908,"source":"CELESTRAK","updated_at":"2026-09-20T09:00:35.330418Z"}}